Volver al catálogo

STARLINK-34220

ActivoComunicacionesVLEO
NORAD 64930·PAYLOAD·🇺🇸 United States

Lanzado Jul 26, 2025 desde Cape Canaveral Space Force Station

Loading…

Próximos Pases (próximas 24 horas)

TLE

ActualizadoSource: CelesTrak SupGP

Época: Sep 15, 2026, 02:31 UTC

1 64930C 25157AC  26258.10534722 -.00061439  00000+0 -19758-2 0  2583
2 64930  53.1571 184.2251 0001294  80.9253  38.5715 15.31731603    12

Sigue STARLINK-34220 en tiempo real con AllMySat

Download on the App Store